WESTFORD NEEDLES, 18615

Orbit data source: Space-Track

WESTFORD NEEDLES, 18615 is space debris in LEO originally from a launch on Thu, 09 May 1963 UTC launched from the Air Force Western Test Range (AFWTR). Debris objects in space refer to the collection of defunct objects orbiting the Earth. Examples of debris include non-operational satellites, rocket bodies, and fragments generated from explosions, collisions, or faulty payload assembly.

Loading next visibility...
Identifier
18615, 1963-014DK
Orbit
LEO
Country
Flag of USUS
Related business
Manufacturer
Unknown
Mission
Spacecraft
Bus & Motor
Unknown
Mass
Unknown
Launch date (UTC)
1963-05-09 (63 years ago)
Launch vehicle
Unknown
Launch site
Air Force Western Test Range (AFWTR)
Object type
Payload
Rocket body
Debris
Shape & HBR
Unknown shape, 0.2 m
Radar Cross Section
Medium (>0.1 m² and <1 m²)

Expand to show TLE details & history
Last TLE update: 2 days ago

TLE from 2 days ago
0 WESTFORD NEEDLES
1 18615U 63014DK  26173.28020506  .00007707  00000-0  56141+0 0  9994
2 18615  86.2783 103.6619 1847247 106.0994  33.5575  8.76417021 43578
Epoch: 2026-06-22T06:43Z
TLE epoch observation values (Epoch: 2026-06-22T06:43:29.717Z)
Latitude
26.01023°
Longitude
-89.49074°
Altitude
2,163.853 km
Speed
7.299 km/s
True Right ascension
18h 47m 24s
True Declination
25° 53' 50"
Sunlit
Object was in daylight at epoch
Visualization orbit readout
Latitude
Unknown
Longitude
Unknown
Altitude
Unknown
Speed
Unknown
Apparent Right ascension
Unknown
Apparent Declination
Unknown
Sunlit
N/A
Visualization observer readout
Local Sidereal Time
23:28:33
Azimuth
Unknown
Elevation
Unknown
Doppler factor
Unknown
Orbital elements
Apogee altitude
5,391.912 km
Perigee altitude
1,721.492 km
Semi-major axis
9,934.839 km
Eccentricity
0.18472
Inclination
86.2783°
RAAN
103.6619°
Arg. of periapsis
106.0994°
True anomaly
47.85998°
Mean anomaly
33.5575°
Eccentric anomaly
40.41998°
Mean motion
2.1918 °/min
Orbital period
164.25 mins
BSTAR
0.56141
Loading maneuver chart data...
Computing Atmospheric mass density...

Documentation

Showing up to 5 results
|